TimeEDT,TemperatureF,Dew PointF,Humidity,Sea Level PressureIn,VisibilityMPH,Wind Direction,Wind SpeedMPH,Gust SpeedMPH,PrecipitationIn,Events,Conditions,WindDirDegrees,DateUTC
12:25 AM,50.0,46.4,87,30.06,7.0,North,5.8,-,0.03,Rain,Light Rain,10,2012-10-27 04:25:00
12:33 AM,50.0,46.4,87,30.05,7.0,NNE,6.9,-,0.03,Rain,Light Rain,20,2012-10-27 04:33:00
12:43 AM,50.0,46.4,87,30.05,4.0,North,4.6,-,0.06,Rain,Rain,10,2012-10-27 04:43:00
12:54 AM,50.0,46.9,89,30.05,4.0,NNE,4.6,-,0.09,Rain,Rain,20,2012-10-27 04:54:00
1:16 AM,50.0,46.4,87,30.06,4.0,NNW,5.8,-,0.08,Rain,Rain,330,2012-10-27 05:16:00
1:22 AM,50.0,46.4,87,30.06,3.0,North,5.8,-,0.12,Rain,Rain,350,2012-10-27 05:22:00
1:43 AM,48.2,46.4,93,30.04,5.0,North,5.8,-,0.20,Rain,Light Rain,10,2012-10-27 05:43:00
1:54 AM,50.0,46.9,89,30.05,5.0,North,5.8,-,0.23,Rain,Rain,350,2012-10-27 05:54:00
2:13 AM,50.0,46.4,87,30.05,4.0,North,3.5,-,0.04,Rain,Light Rain,350,2012-10-27 06:13:00
2:22 AM,48.2,46.4,93,30.05,5.0,North,5.8,-,0.06,Rain,Rain,360,2012-10-27 06:22:00
2:54 AM,48.9,46.0,90,30.04,4.0,North,8.1,-,0.12,Rain,Rain,10,2012-10-27 06:54:00
3:09 AM,48.2,46.4,93,30.03,6.0,Variable,5.8,-,0.02,Rain,Light Rain,0,2012-10-27 07:09:00
3:41 AM,48.2,46.4,93,30.02,6.0,North,8.1,-,0.06,Rain,Rain,10,2012-10-27 07:41:00
3:54 AM,48.9,46.0,90,30.02,5.0,North,8.1,17.3,0.08,Rain,Rain,10,2012-10-27 07:54:00
4:23 AM,48.2,44.6,87,30.01,8.0,NNE,8.1,16.1,0.05,Rain,Light Rain,20,2012-10-27 08:23:00
4:54 AM,48.0,45.0,89,30.01,9.0,NNE,8.1,-,0.07,Rain,Light Rain,20,2012-10-27 08:54:00
5:51 AM,48.2,44.6,87,30.01,6.0,North,5.8,-,0.05,Rain,Light Rain,10,2012-10-27 09:51:00
5:54 AM,48.0,45.0,89,30.02,6.0,North,6.9,-,0.05,Rain,Light Rain,10,2012-10-27 09:54:00
6:26 AM,48.2,44.6,87,30.01,4.0,North,5.8,-,0.04,Rain,Light Rain,10,2012-10-27 10:26:00
6:54 AM,48.0,45.0,89,30.01,8.0,North,5.8,-,0.05,Rain,Light Rain,10,2012-10-27 10:54:00
7:54 AM,48.0,44.1,86,30.03,10.0,North,8.1,-,0.00,,Overcast,350,2012-10-27 11:54:00
8:15 AM,48.2,44.6,87,30.04,10.0,North,9.2,-,0.00,Rain,Light Rain,360,2012-10-27 12:15:00
8:30 AM,48.2,42.8,82,30.05,10.0,Variable,6.9,17.3,0.00,,Overcast,0,2012-10-27 12:30:00
8:54 AM,48.0,43.0,83,30.06,10.0,North,11.5,17.3,0.00,,Overcast,360,2012-10-27 12:54:00
10:43 AM,48.2,44.6,87,30.07,4.0,North,6.9,-,0.00,Rain,Light Rain,10,2012-10-27 14:43:00
10:54 AM,48.0,44.1,86,30.09,3.0,North,8.1,-,0.01,Rain,Light Rain,360,2012-10-27 14:54:00
11:20 AM,48.2,44.6,87,30.08,4.0,North,8.1,-,0.00,Rain,Light Rain,350,2012-10-27 15:20:00
11:30 AM,48.2,44.6,87,30.08,6.0,North,6.9,-,0.00,,Overcast,350,2012-10-27 15:30:00
11:54 AM,48.0,44.1,86,30.09,7.0,North,13.8,-,0.00,,Overcast,350,2012-10-27 15:54:00
12:54 PM,48.9,43.0,80,30.06,10.0,NNE,10.4,16.1,N/A,,Overcast,20,2012-10-27 16:54:00
1:54 PM,50.0,44.1,80,30.05,10.0,North,11.5,18.4,N/A,,Overcast,350,2012-10-27 17:54:00
2:54 PM,50.0,44.1,80,30.04,10.0,NNW,15.0,19.6,N/A,,Overcast,340,2012-10-27 18:54:00
3:01 PM,50.0,42.8,76,30.04,10.0,NNW,11.5,20.7,N/A,,Overcast,340,2012-10-27 19:01:00
3:41 PM,50.0,42.8,76,30.04,10.0,North,10.4,-,N/A,,Overcast,360,2012-10-27 19:41:00
3:54 PM,50.0,43.0,77,30.05,10.0,North,10.4,-,N/A,,Overcast,360,2012-10-27 19:54:00
4:54 PM,51.1,43.0,74,30.05,10.0,North,6.9,-,N/A,,Overcast,10,2012-10-27 20:54:00
5:54 PM,51.1,43.0,74,30.06,10.0,North,8.1,17.3,N/A,,Overcast,350,2012-10-27 21:54:00
6:54 PM,50.0,42.1,74,30.07,10.0,North,9.2,-,N/A,,Overcast,10,2012-10-27 22:54:00
7:54 PM,50.0,42.1,74,30.08,10.0,North,9.2,-,N/A,,Overcast,350,2012-10-27 23:54:00
8:54 PM,50.0,42.1,74,30.08,10.0,North,9.2,-,N/A,,Overcast,360,2012-10-28 00:54:00
9:23 PM,48.2,41.0,76,30.07,10.0,North,8.1,-,N/A,,Overcast,10,2012-10-28 01:23:00
9:54 PM,48.9,41.0,74,30.08,10.0,NNE,6.9,17.3,N/A,,Overcast,20,2012-10-28 01:54:00
10:08 PM,48.2,42.8,82,30.08,10.0,North,8.1,-,N/A,,Overcast,10,2012-10-28 02:08:00
10:54 PM,48.9,43.0,80,30.08,10.0,North,8.1,-,N/A,,Overcast,360,2012-10-28 02:54:00
11:54 PM,48.0,43.0,83,30.08,8.0,North,8.1,-,N/A,,Overcast,360,2012-10-28 03:54:00